Terminal Aerodrome Forecast
Issued by NWS Grand Forks, ND

Home | Current Version | Previous Version | Text Only | Print | Product List | Glossary Off
Versions: 1 2 3 4 5 6 7 8 9 10 11 12 13 14 15

777
FTUS43 KFGF 251631 AAB
TAFGFK
TAF AMD
KGFK 251631Z 2517/2612 34010KT P6SM VCSH BKN040
     FM251800 33010KT P6SM BKN050
     FM252300 36010KT P6SM SCT110
     FM260000 33009KT P6SM SCT120
     FM260300 32005KT P6SM FEW200=

USA.gov is the U.S. government's official web portal to all federal, state and local government web resources and services.